SCP
-0 -0 -0 -0 -0 -0 -0 0 0 0 0 0 0 0 0 0 0 0 0 0 0 0 0 0 0 0 0 0 0 0 0 0
-0 -0 -0 -0 -0 -0 -0 -0 -0 0 0 0 0 0 0 0 0 0 0 0 0 0 0 0 0 0 0 0 0 0 0 0
-0 -0 -0 -0 -0 -0 -0 -0 -0 0 -0 0 0 0 -0 0 0 0 0 0 0 0 0 0 0 0 0 0 0 0 0 0
-0 -0 -0 -0 -0 -0 -0 -0 -0 -0 0 0 0 -0 0 0 0 0 0 -0 0 0 0 0 0 0 0 0 0 0 0 0
-0 -0 -0 -0 -0 -0 -0 -0 -0 -0 -0 0 0 0 0 0 0 0 0 0 0 0 0 0 0 0 -0 0 0 0 0 0
-0 -0 -0 -0 -0 -0 -0 -0 -0 -0 -0 0 0 0 0 0 0 0 0 0 0 0 0 0 0 0 0 0 0 0 0 0
-0 -0 -0 -0 -0 -0 -0 -0 -0 -0 -0 0 0 0 0 0 0 0 0 0 0 0 0 0 0 -0 0 0 0 0 -0 -0
-0 -0 -0 -0 -0 -0 -0 -0 -0 -0 -0 -0 0 0 0 0 0 0 0 0 0 0 0 0 0 0 0 0 0 0 0 -0
0 -0 -0 -0 -0 -0 -0 -0 -0 -0 -0 -0 0 0 0 0 0 0 0 0 0 0 0 0 0 0 0 0 0 0 0 -0
-0 -0 -0 -0 -0 -0 -0 -0 -0 0 -0 -0 -0 -0 0 0 0 0 0 0 0 0 0 0 0 0 0 0 0 0 0 0
-0 -0 0 -0 -0 -0 -0 -0 -0 -0 0 -0 -0 -0 -0 -0 -0 0 0 0 0 0 0 0 0 -0 0 0 -0 0 0 0
-0 0 0 -0 -0 -0 -0 -0 -0 -0 0 0 0 0 0 -0 0 0 0 0 0 0 0 0 0 -0 -0 -0 -0 -0 0 0
-0 0 0 -0 0 -0 -0 0 -0 -0 0 0 0 0 0 0 0 0 0 0 0 0 0 0 0 0 0 -0 -0 0 0 0
0 0 0 0 0 0 -0 -0 0 0 0 0 0 0 0 0 0 0 0 0 0 -0 -0 -0 -0 -0 -0 -0 -0 -0 -0 -0
0 0 0 0 0 0 0 0 0 0 0 0 0 0 0 0 0 0 0 0 0 -0 -0 -0 -0 -0 -0 -0 -0 -0 -0 0
0 0 0 0 0 0 0 0 0 0 0 0 0 0 0 0 0 0 0 0 0 0 -0 -0 -0 0 -0 -0 -0 0 0 0
0 0 0 0 0 0 0 0 0 0 0 0 0 0 0 0 0 0 0 0 0 0 0 0 0 0 0 0 -0 0 0 0
0 0 0 0 0 0 0 0 0 0 0 0 0 0 0 0 0 0 0 0 0 0 0 0 0 0 0 0 0 0 0 0
0 0 0 0 0 0 0 0 0 0 0 0 0 0 0 0 0 0 0 0 0 0 0 0 0 0 0 0 0 0 0 0
0 1 0 0 0 0 0 0 0 0 0 0 0 0 0 0 0 0 0 0 0 0 0 0 0 0 0 0 0 0 0 0
Wind_Speed_500mb
67 62 54 50 47 36 28 33 28 23 19 23 15 9 6 10 15 13 15 18 24 28 32 32 35 34 28 27 26 29 27 25
75 66 57 53 46 34 28 37 32 25 23 25 20 8 17 15 16 19 21 26 29 33 29 31 32 29 28 29 30 27 26 21
79 72 62 55 48 38 33 37 37 30 29 24 22 21 27 16 26 26 32 36 30 31 34 32 28 24 25 26 30 24 22 24
79 72 65 58 54 45 40 37 38 37 32 23 30 30 23 20 25 24 32 33 27 24 29 26 20 18 19 22 32 19 27 40
81 76 70 58 57 49 46 40 42 41 33 26 36 31 29 29 23 21 24 24 21 21 26 24 23 23 24 31 30 26 33 38
82 78 73 59 53 51 44 44 47 46 37 30 38 37 36 30 30 25 22 16 12 14 23 24 26 26 26 36 36 29 31 39
83 76 72 62 58 55 52 53 52 50 44 35 36 46 44 37 30 29 23 24 7 11 17 23 28 30 32 40 38 36 38 38
84 80 77 66 63 62 59 59 60 57 47 38 33 50 46 42 39 31 29 26 13 22 22 22 30 32 33 33 33 36 37 39
80 82 80 73 68 69 66 65 65 54 41 41 42 35 46 45 42 36 30 29 23 24 28 31 35 30 31 29 33 34 33 33
83 85 82 79 73 74 72 70 60 52 43 46 49 43 46 41 42 38 30 29 36 32 27 33 37 38 32 33 30 29 26 25
87 86 85 84 80 76 74 66 61 57 52 50 53 49 48 49 43 43 37 27 42 42 40 30 37 47 44 38 33 30 26 27
92 88 87 86 86 80 64 64 62 61 57 54 53 58 56 51 45 43 40 37 33 52 45 44 35 38 51 52 46 38 33 30
92 87 86 88 83 82 73 66 67 69 63 59 58 64 59 57 50 47 43 37 34 46 53 44 47 41 43 49 51 47 35 36
90 84 86 84 82 80 75 71 73 71 73 67 65 72 65 61 56 51 46 33 27 33 41 43 40 31 31 42 49 49 44 44
86 87 87 83 84 82 77 76 76 72 79 74 69 78 71 66 60 52 48 45 37 38 48 41 34 29 35 38 42 52 53 51
80 84 89 83 85 82 77 78 77 77 79 78 76 76 80 70 61 53 48 46 45 48 51 49 42 40 39 39 38 53 66 64
84 80 80 82 83 78 76 76 77 78 81 85 81 76 79 76 65 59 52 47 48 52 50 55 54 46 47 48 49 58 71 73
73 79 71 66 70 69 68 74 76 74 76 83 87 82 79 81 74 66 59 51 51 54 57 56 60 59 53 57 62 64 66 71
67 62 59 61 57 55 57 67 72 72 72 80 87 84 78 80 79 72 64 57 54 55 57 57 60 66 67 64 65 73 71 67
58 57 63 60 60 64 62 56 55 72 75 73 83 85 78 77 78 75 70 63 60 57 51 53 58 62 67 73 73 76 76 78
Wind_Direction_500mb
178 178 184 186 187 186 184 188 191 185 174 170 155 176 90 82 62 60 132 130 129 129 144 143 149 156 162 167 154 137 148 161
178 182 188 189 190 189 182 182 189 182 186 174 173 166 119 97 75 86 132 134 128 133 138 144 151 156 164 170 171 159 158 152
184 186 190 193 193 189 182 182 187 187 187 178 170 150 125 109 95 90 117 126 123 136 142 144 154 159 173 180 186 187 191 178
189 191 192 194 195 189 183 180 190 191 189 179 164 156 163 149 114 93 127 130 125 139 156 156 160 162 169 172 167 155 157 152
193 196 195 193 195 190 186 184 189 191 190 181 171 167 161 149 149 135 121 117 109 114 142 156 149 135 149 155 158 161 152 148
198 198 197 195 193 192 186 186 192 190 190 187 175 171 168 162 166 175 166 137 103 129 139 151 152 140 144 152 146 149 152 147
200 201 199 192 192 190 187 189 195 193 190 189 178 175 174 178 173 172 174 163 142 155 144 143 148 147 149 150 148 143 142 151
202 203 201 194 192 190 187 191 195 196 193 191 184 184 183 186 190 185 175 177 177 169 166 154 147 141 148 156 159 160 159 160
205 204 203 198 193 191 192 193 197 201 196 193 192 181 186 192 189 193 202 199 186 171 176 173 170 163 153 155 161 162 160 158
205 205 205 200 195 193 194 197 198 198 193 195 199 190 184 190 195 199 200 207 196 188 180 181 183 183 181 180 186 189 188 182
204 207 205 204 197 197 199 200 195 195 194 193 200 196 193 196 195 200 206 212 204 198 199 197 191 194 194 197 197 196 197 208
201 203 205 203 201 201 204 198 194 195 197 197 200 197 197 201 205 208 213 216 212 203 209 212 211 205 207 208 208 206 203 198
197 201 207 206 202 204 203 199 194 195 199 200 203 201 199 200 209 212 218 230 232 213 211 215 214 219 214 211 211 208 204 194
195 203 209 208 204 206 204 201 199 196 198 201 205 203 203 204 207 212 218 226 229 228 223 222 226 232 227 214 212 212 210 202
198 205 209 209 207 207 208 203 203 204 202 203 208 208 206 207 209 212 213 211 217 214 212 215 218 214 207 208 210 211 213 211
201 207 208 207 208 209 210 206 207 210 210 207 208 211 212 212 215 217 220 219 212 202 202 203 205 209 209 210 211 213 213 215
198 204 204 207 209 211 212 208 209 212 214 212 213 214 217 217 219 221 225 225 223 214 204 205 207 217 218 217 224 224 217 218
194 199 198 199 205 210 213 211 211 212 217 218 216 218 219 217 219 223 224 229 227 222 217 215 215 216 219 221 223 224 226 225
185 194 198 207 206 204 210 214 214 214 214 219 222 221 224 223 221 223 228 231 229 228 228 224 224 223 223 222 224 226 228 228
190 199 202 204 209 210 205 209 215 218 215 217 221 225 225 223 225 228 229 232 233 233 232 232 229 232 233 233 232 231 232 235
Wind_Speed_850mb
67 62 54 50 47 36 28 33 28 23 19 23 15 9 6 10 15 13 15 18 24 28 32 32 35 34 28 27 26 29 27 25
75 66 57 53 46 34 28 37 32 25 23 25 20 8 17 15 16 19 21 26 29 33 29 31 32 29 28 29 30 27 26 21
79 72 62 55 48 38 33 37 37 30 29 24 22 21 27 16 26 26 32 36 30 31 34 32 28 24 25 26 30 24 22 24
79 72 65 58 54 45 40 37 38 37 32 23 30 30 23 20 25 24 32 33 27 24 29 26 20 18 19 22 32 19 27 40
81 76 70 58 57 49 46 40 42 41 33 26 36 31 29 29 23 21 24 24 21 21 26 24 23 23 24 31 30 26 33 38
82 78 73 59 53 51 44 44 47 46 37 30 38 37 36 30 30 25 22 16 12 14 23 24 26 26 26 36 36 29 31 39
83 76 72 62 58 55 52 53 52 50 44 35 36 46 44 37 30 29 23 24 7 11 17 23 28 30 32 40 38 36 38 38
84 80 77 66 63 62 59 59 60 57 47 38 33 50 46 42 39 31 29 26 13 22 22 22 30 32 33 33 33 36 37 39
80 82 80 73 68 69 66 65 65 54 41 41 42 35 46 45 42 36 30 29 23 24 28 31 35 30 31 29 33 34 33 33
83 85 82 79 73 74 72 70 60 52 43 46 49 43 46 41 42 38 30 29 36 32 27 33 37 38 32 33 30 29 26 25
87 86 85 84 80 76 74 66 61 57 52 50 53 49 48 49 43 43 37 27 42 42 40 30 37 47 44 38 33 30 26 27
92 88 87 86 86 80 64 64 62 61 57 54 53 58 56 51 45 43 40 37 33 52 45 44 35 38 51 52 46 38 33 30
92 87 86 88 83 82 73 66 67 69 63 59 58 64 59 57 50 47 43 37 34 46 53 44 47 41 43 49 51 47 35 36
90 84 86 84 82 80 75 71 73 71 73 67 65 72 65 61 56 51 46 33 27 33 41 43 40 31 31 42 49 49 44 44
86 87 87 83 84 82 77 76 76 72 79 74 69 78 71 66 60 52 48 45 37 38 48 41 34 29 35 38 42 52 53 51
80 84 89 83 85 82 77 78 77 77 79 78 76 76 80 70 61 53 48 46 45 48 51 49 42 40 39 39 38 53 66 64
84 80 80 82 83 78 76 76 77 78 81 85 81 76 79 76 65 59 52 47 48 52 50 55 54 46 47 48 49 58 71 73
73 79 71 66 70 69 68 74 76 74 76 83 87 82 79 81 74 66 59 51 51 54 57 56 60 59 53 57 62 64 66 71
67 62 59 61 57 55 57 67 72 72 72 80 87 84 78 80 79 72 64 57 54 55 57 57 60 66 67 64 65 73 71 67
58 57 63 60 60 64 62 56 55 72 75 73 83 85 78 77 78 75 70 63 60 57 51 53 58 62 67 73 73 76 76 78
Wind_Direction_850mb
178 178 184 186 187 186 184 188 191 185 174 170 155 176 90 82 62 60 132 130 129 129 144 143 149 156 162 167 154 137 148 161
178 182 188 189 190 189 182 182 189 182 186 174 173 166 119 97 75 86 132 134 128 133 138 144 151 156 164 170 171 159 158 152
184 186 190 193 193 189 182 182 187 187 187 178 170 150 125 109 95 90 117 126 123 136 142 144 154 159 173 180 186 187 191 178
189 191 192 194 195 189 183 180 190 191 189 179 164 156 163 149 114 93 127 130 125 139 156 156 160 162 169 172 167 155 157 152
193 196 195 193 195 190 186 184 189 191 190 181 171 167 161 149 149 135 121 117 109 114 142 156 149 135 149 155 158 161 152 148
198 198 197 195 193 192 186 186 192 190 190 187 175 171 168 162 166 175 166 137 103 129 139 151 152 140 144 152 146 149 152 147
200 201 199 192 192 190 187 189 195 193 190 189 178 175 174 178 173 172 174 163 142 155 144 143 148 147 149 150 148 143 142 151
202 203 201 194 192 190 187 191 195 196 193 191 184 184 183 186 190 185 175 177 177 169 166 154 147 141 148 156 159 160 159 160
205 204 203 198 193 191 192 193 197 201 196 193 192 181 186 192 189 193 202 199 186 171 176 173 170 163 153 155 161 162 160 158
205 205 205 200 195 193 194 197 198 198 193 195 199 190 184 190 195 199 200 207 196 188 180 181 183 183 181 180 186 189 188 182
204 207 205 204 197 197 199 200 195 195 194 193 200 196 193 196 195 200 206 212 204 198 199 197 191 194 194 197 197 196 197 208
201 203 205 203 201 201 204 198 194 195 197 197 200 197 197 201 205 208 213 216 212 203 209 212 211 205 207 208 208 206 203 198
197 201 207 206 202 204 203 199 194 195 199 200 203 201 199 200 209 212 218 230 232 213 211 215 214 219 214 211 211 208 204 194
195 203 209 208 204 206 204 201 199 196 198 201 205 203 203 204 207 212 218 226 229 228 223 222 226 232 227 214 212 212 210 202
198 205 209 209 207 207 208 203 203 204 202 203 208 208 206 207 209 212 213 211 217 214 212 215 218 214 207 208 210 211 213 211
201 207 208 207 208 209 210 206 207 210 210 207 208 211 212 212 215 217 220 219 212 202 202 203 205 209 209 210 211 213 213 215
198 204 204 207 209 211 212 208 209 212 214 212 213 214 217 217 219 221 225 225 223 214 204 205 207 217 218 217 224 224 217 218
194 199 198 199 205 210 213 211 211 212 217 218 216 218 219 217 219 223 224 229 227 222 217 215 215 216 219 221 223 224 226 225
185 194 198 207 206 204 210 214 214 214 214 219 222 221 224 223 221 223 228 231 229 228 228 224 224 223 223 222 224 226 228 228
190 199 202 204 209 210 205 209 215 218 215 217 221 225 225 223 225 228 229 232 233 233 232 232 229 232 233 233 232 231 232 235